Location: Enborne
(51.3833°N, 1.3667°W)
Time: 01:48:53
(UTC+00:00)

Cosmos 1766 - Pass Details

Date: 18 September 2020
Orbit: 521 x 544 km, 82.5° (Epoch: 30 October)

Event Time Altitude Azimuth Distance (km) Brightness Sun altitude
Exits shadow 21:09:35 49° 303° (WNW) 695 4.1 -26.2°
Drops below altitude 10° 21:13:08 10° 2° (N) 1,806 6.4 -26.6°
Sets 21:15:22 0° 7° (N) 2,706 7.3 -26.8°
